Zurück zum Katalog

NUVIEW BRAVO

AktivWissenschaftGEO
NORAD 62457·PAYLOAD·🇬🇧 United Kingdom

Gestartet Dec 29, 2024 von Cape Canaveral Space Force Station

Loading…

TLE

AktuellSource: Space-Track

Epoche: Sep 14, 2026, 13:24 UTC

1 62457U 24252D   26257.55867749 -.00000223  00000-0  00000-0 0  9990
2 62457   0.0623 163.0427 0001675  15.6239 292.8944  1.00272178  4689

Verfolge NUVIEW BRAVO in Echtzeit mit AllMySat

Download on the App Store